Time,TemperatureF,DewpointF,PressureIn,WindDirection,WindDirectionDegrees,WindSpeedMPH,WindSpeedGustMPH,Humidity,HourlyPrecipIn,Conditions,Clouds,dailyrainin,SoftwareType,DateUTC
2013-01-09 00:08:00,17.9,16.0,30.38,WNW,296,0.0,0.0,92,0.00,,,0.00,weatherlink.com 1.10,2013-01-09 05:08:00,
2013-01-09 00:23:00,17.5,15.0,30.39,WNW,296,0.0,0.0,91,0.00,,,0.00,weatherlink.com 1.10,2013-01-09 05:23:00,
2013-01-09 00:38:00,17.4,16.0,30.39,WNW,296,0.0,0.0,92,0.00,,,0.00,weatherlink.com 1.10,2013-01-09 05:38:00,
2013-01-09 00:53:00,17.8,16.0,30.39,WNW,296,0.0,0.0,92,0.00,,,0.00,weatherlink.com 1.10,2013-01-09 05:53:00,
2013-01-09 01:08:00,17.7,16.0,30.38,WNW,296,0.0,0.0,92,0.00,,,0.00,weatherlink.com 1.10,2013-01-09 06:08:00,
2013-01-09 01:23:00,17.8,16.0,30.38,WNW,296,0.0,0.0,92,0.00,,,0.00,weatherlink.com 1.10,2013-01-09 06:23:00,
2013-01-09 01:38:00,18.0,16.0,30.39,WNW,296,0.0,0.0,92,0.00,,,0.00,weatherlink.com 1.10,2013-01-09 06:38:00,
2013-01-09 01:53:00,17.9,16.0,30.40,WNW,296,0.0,0.0,91,0.00,,,0.00,weatherlink.com 1.10,2013-01-09 06:53:00,
2013-01-09 02:08:00,17.6,16.0,30.39,WNW,296,0.0,0.0,92,0.00,,,0.00,weatherlink.com 1.10,2013-01-09 07:08:00,
2013-01-09 02:23:00,17.5,16.0,30.40,WNW,296,0.0,0.0,92,0.00,,,0.00,weatherlink.com 1.10,2013-01-09 07:23:00,
2013-01-09 02:38:00,17.4,16.0,30.39,WNW,296,0.0,0.0,92,0.00,,,0.00,weatherlink.com 1.10,2013-01-09 07:38:00,
2013-01-09 02:54:00,16.9,15.0,30.39,WNW,296,0.0,2.0,91,0.00,,,0.00,weatherlink.com 1.10,2013-01-09 07:54:00,
2013-01-09 03:08:00,16.4,14.0,30.38,WNW,296,0.0,0.0,91,0.00,,,0.00,weatherlink.com 1.10,2013-01-09 08:08:00,
2013-01-09 03:23:00,16.0,14.0,30.38,WNW,296,0.0,2.0,92,0.00,,,0.00,weatherlink.com 1.10,2013-01-09 08:23:00,
2013-01-09 03:38:00,15.4,13.0,30.38,WNW,296,0.0,0.0,91,0.00,,,0.00,weatherlink.com 1.10,2013-01-09 08:38:00,
2013-01-09 03:53:00,14.7,13.0,30.38,WNW,296,0.0,0.0,91,0.00,,,0.00,weatherlink.com 1.10,2013-01-09 08:53:00,
2013-01-09 04:08:00,14.1,12.0,30.37,WNW,296,0.0,0.0,90,0.00,,,0.00,weatherlink.com 1.10,2013-01-09 09:08:00,
2013-01-09 04:23:00,13.6,12.0,30.36,WNW,296,0.0,0.0,91,0.00,,,0.00,weatherlink.com 1.10,2013-01-09 09:23:00,
2013-01-09 04:38:00,13.0,11.0,30.36,WNW,296,0.0,0.0,90,0.00,,,0.00,weatherlink.com 1.10,2013-01-09 09:38:00,
2013-01-09 04:53:00,12.5,10.0,30.37,WNW,296,0.0,0.0,90,0.00,,,0.00,weatherlink.com 1.10,2013-01-09 09:53:00,
2013-01-09 05:08:00,11.9,10.0,30.38,WNW,296,0.0,0.0,90,0.00,,,0.00,weatherlink.com 1.10,2013-01-09 10:08:00,
2013-01-09 05:23:00,11.6,9.0,30.38,WNW,296,0.0,0.0,90,0.00,,,0.00,weatherlink.com 1.10,2013-01-09 10:23:00,
2013-01-09 05:38:00,11.2,9.0,30.39,WNW,296,0.0,0.0,90,0.00,,,0.00,weatherlink.com 1.10,2013-01-09 10:38:00,
2013-01-09 05:53:00,10.7,8.0,30.39,WNW,296,0.0,0.0,90,0.00,,,0.00,weatherlink.com 1.10,2013-01-09 10:53:00,
2013-01-09 06:08:00,10.3,8.0,30.40,WNW,296,0.0,0.0,90,0.00,,,0.00,weatherlink.com 1.10,2013-01-09 11:08:00,
2013-01-09 06:23:00,9.9,8.0,30.40,WNW,296,0.0,0.0,90,0.00,,,0.00,weatherlink.com 1.10,2013-01-09 11:23:00,
2013-01-09 06:38:00,9.8,8.0,30.40,WNW,296,0.0,0.0,90,0.00,,,0.00,weatherlink.com 1.10,2013-01-09 11:38:00,
2013-01-09 06:54:00,9.4,7.0,30.41,WNW,296,0.0,0.0,90,0.00,,,0.00,weatherlink.com 1.10,2013-01-09 11:54:00,
2013-01-09 07:09:00,9.2,7.0,30.41,WNW,296,0.0,0.0,90,0.00,,,0.00,weatherlink.com 1.10,2013-01-09 12:09:00,
2013-01-09 07:24:00,9.1,7.0,30.42,WNW,296,0.0,0.0,89,0.00,,,0.00,weatherlink.com 1.10,2013-01-09 12:24:00,
2013-01-09 07:39:00,8.9,6.0,30.41,WNW,296,0.0,0.0,89,0.00,,,0.00,weatherlink.com 1.10,2013-01-09 12:39:00,
2013-01-09 07:54:00,9.1,7.0,30.42,WNW,296,0.0,0.0,90,0.00,,,0.00,weatherlink.com 1.10,2013-01-09 12:54:00,
2013-01-09 08:09:00,9.5,7.0,30.40,WNW,296,0.0,0.0,90,0.00,,,0.00,weatherlink.com 1.10,2013-01-09 13:09:00,
2013-01-09 08:24:00,9.6,7.0,30.40,WNW,296,0.0,0.0,89,0.00,,,0.00,weatherlink.com 1.10,2013-01-09 13:24:00,
2013-01-09 08:39:00,10.5,8.0,30.41,WNW,296,0.0,0.0,91,0.00,,,0.00,weatherlink.com 1.10,2013-01-09 13:39:00,
2013-01-09 08:54:00,12.5,11.0,30.40,WNW,296,0.0,0.0,92,0.00,,,0.00,weatherlink.com 1.10,2013-01-09 13:54:00,
2013-01-09 09:09:00,14.5,13.0,30.41,WNW,296,0.0,0.0,92,0.00,,,0.00,weatherlink.com 1.10,2013-01-09 14:09:00,
2013-01-09 09:24:00,16.2,15.0,30.40,WNW,296,0.0,0.0,93,0.00,,,0.00,weatherlink.com 1.10,2013-01-09 14:24:00,
2013-01-09 09:39:00,17.6,16.0,30.39,WNW,296,0.0,0.0,93,0.00,,,0.00,weatherlink.com 1.10,2013-01-09 14:39:00,
2013-01-09 09:54:00,18.7,17.0,30.37,WNW,296,0.0,0.0,91,0.00,,,0.00,weatherlink.com 1.10,2013-01-09 14:54:00,
2013-01-09 10:10:00,19.6,17.0,30.37,WNW,296,0.0,0.0,90,0.00,,,0.00,weatherlink.com 1.10,2013-01-09 15:10:00,
2013-01-09 10:24:00,20.5,18.0,30.35,WNW,296,0.0,0.0,90,0.00,,,0.00,weatherlink.com 1.10,2013-01-09 15:24:00,
2013-01-09 10:39:00,21.3,19.0,30.35,WNW,296,0.0,0.0,89,0.00,,,0.00,weatherlink.com 1.10,2013-01-09 15:39:00,
2013-01-09 10:54:00,22.6,20.0,30.34,WNW,296,0.0,0.0,89,0.00,,,0.00,weatherlink.com 1.10,2013-01-09 15:54:00,
2013-01-09 11:09:00,23.7,20.0,30.32,WNW,296,0.0,1.0,87,0.00,,,0.00,weatherlink.com 1.10,2013-01-09 16:09:00,
2013-01-09 11:24:00,24.6,21.0,30.30,WNW,296,0.0,2.0,86,0.00,,,0.00,weatherlink.com 1.10,2013-01-09 16:24:00,
2013-01-09 11:39:00,25.4,21.0,30.27,WNW,296,0.0,0.0,84,0.00,,,0.00,weatherlink.com 1.10,2013-01-09 16:39:00,
2013-01-09 11:54:00,26.2,22.0,30.26,WNW,296,0.0,1.0,83,0.00,,,0.00,weatherlink.com 1.10,2013-01-09 16:54:00,
2013-01-09 12:09:00,27.9,23.0,30.23,WNW,296,0.0,1.0,82,0.00,,,0.00,weatherlink.com 1.10,2013-01-09 17:09:00,
2013-01-09 12:24:00,29.0,23.0,30.22,WNW,296,0.0,3.0,78,0.00,,,0.00,weatherlink.com 1.10,2013-01-09 17:24:00,
2013-01-09 12:39:00,29.8,23.0,30.19,WNW,296,0.0,1.0,77,0.00,,,0.00,weatherlink.com 1.10,2013-01-09 17:39:00,
2013-01-09 12:54:00,30.4,24.0,30.18,WNW,296,2.0,3.0,76,0.00,,,0.00,weatherlink.com 1.10,2013-01-09 17:54:00,
2013-01-09 13:09:00,30.5,24.0,30.19,West,265,0.0,3.0,76,0.00,,,0.00,weatherlink.com 1.10,2013-01-09 18:09:00,
2013-01-09 13:24:00,30.9,24.0,30.19,West,265,0.0,1.0,75,0.00,,,0.00,weatherlink.com 1.10,2013-01-09 18:24:00,
2013-01-09 13:39:00,31.6,24.0,30.17,West,265,0.0,0.0,74,0.00,,,0.00,weatherlink.com 1.10,2013-01-09 18:39:00,
2013-01-09 13:54:00,31.7,25.0,30.16,West,265,0.0,0.0,75,0.00,,,0.00,weatherlink.com 1.10,2013-01-09 18:54:00,
2013-01-09 14:10:00,31.6,25.0,30.16,West,265,0.0,0.0,75,0.00,,,0.00,weatherlink.com 1.10,2013-01-09 19:10:00,
2013-01-09 14:25:00,31.6,25.0,30.14,West,265,0.0,2.0,75,0.00,,,0.00,weatherlink.com 1.10,2013-01-09 19:25:00,
2013-01-09 14:40:00,31.4,24.0,30.11,West,265,0.0,0.0,75,0.00,,,0.00,weatherlink.com 1.10,2013-01-09 19:40:00,
2013-01-09 14:55:00,31.1,25.0,30.11,West,265,0.0,1.0,77,0.00,,,0.00,weatherlink.com 1.10,2013-01-09 19:55:00,
2013-01-09 15:10:00,30.9,25.0,30.11,West,265,0.0,0.0,77,0.00,,,0.00,weatherlink.com 1.10,2013-01-09 20:10:00,
2013-01-09 15:25:00,30.8,25.0,30.07,West,265,2.0,2.0,78,0.00,,,0.00,weatherlink.com 1.10,2013-01-09 20:25:00,
2013-01-09 15:40:00,30.8,25.0,30.08,West,265,0.0,1.0,79,0.00,,,0.00,weatherlink.com 1.10,2013-01-09 20:40:00,
2013-01-09 15:55:00,30.7,25.0,30.07,West,265,0.0,0.0,79,0.00,,,0.00,weatherlink.com 1.10,2013-01-09 20:55:00,
2013-01-09 16:10:00,30.6,25.0,30.05,West,265,0.0,0.0,79,0.00,,,0.00,weatherlink.com 1.10,2013-01-09 21:10:00,
2013-01-09 16:25:00,30.5,25.0,30.03,West,265,0.0,0.0,81,0.00,,,0.00,weatherlink.com 1.10,2013-01-09 21:25:00,
2013-01-09 16:40:00,30.2,25.0,30.02,West,265,0.0,1.0,81,0.00,,,0.00,weatherlink.com 1.10,2013-01-09 21:40:00,
2013-01-09 16:55:00,30.1,25.0,30.01,West,265,0.0,0.0,81,0.00,,,0.00,weatherlink.com 1.10,2013-01-09 21:55:00,
2013-01-09 17:10:00,30.0,25.0,30.00,West,265,0.0,0.0,81,0.00,,,0.00,weatherlink.com 1.10,2013-01-09 22:10:00,
2013-01-09 17:27:00,29.7,25.0,30.00,West,265,0.0,1.0,82,0.00,,,0.00,weatherlink.com 1.10,2013-01-09 22:27:00,
2013-01-09 17:40:00,29.3,24.0,29.98,West,265,0.0,1.0,82,0.00,,,0.00,weatherlink.com 1.10,2013-01-09 22:40:00,
2013-01-09 17:55:00,29.4,25.0,29.98,West,265,0.0,0.0,83,0.00,,,0.00,weatherlink.com 1.10,2013-01-09 22:55:00,
2013-01-09 18:10:00,29.4,24.0,29.99,West,265,0.0,1.0,81,0.00,,,0.00,weatherlink.com 1.10,2013-01-09 23:10:00,
2013-01-09 18:25:00,29.2,24.0,29.97,West,265,0.0,3.0,81,0.00,,,0.00,weatherlink.com 1.10,2013-01-09 23:25:00,
2013-01-09 18:40:00,27.9,23.0,29.97,West,265,0.0,0.0,82,0.00,,,0.00,weatherlink.com 1.10,2013-01-09 23:40:00,
2013-01-09 18:55:00,26.2,22.0,29.97,West,265,0.0,0.0,85,0.00,,,0.00,weatherlink.com 1.10,2013-01-09 23:55:00,
2013-01-09 19:10:00,25.3,22.0,29.96,West,265,0.0,0.0,86,0.00,,,0.00,weatherlink.com 1.10,2013-01-10 00:10:00,
2013-01-09 19:25:00,24.2,21.0,29.96,West,265,0.0,0.0,88,0.00,,,0.00,weatherlink.com 1.10,2013-01-10 00:25:00,
2013-01-09 19:40:00,23.6,21.0,29.97,West,265,0.0,0.0,89,0.00,,,0.00,weatherlink.com 1.10,2013-01-10 00:40:00,
2013-01-09 19:55:00,23.2,21.0,29.97,West,265,0.0,1.0,91,0.00,,,0.00,weatherlink.com 1.10,2013-01-10 00:55:00,
2013-01-09 20:10:00,22.9,20.0,29.97,West,265,0.0,0.0,90,0.00,,,0.00,weatherlink.com 1.10,2013-01-10 01:10:00,
2013-01-09 20:25:00,22.6,20.0,29.96,West,265,0.0,0.0,91,0.00,,,0.00,weatherlink.com 1.10,2013-01-10 01:25:00,
2013-01-09 20:40:00,22.4,21.0,29.96,West,265,0.0,0.0,92,0.00,,,0.00,weatherlink.com 1.10,2013-01-10 01:40:00,
2013-01-09 20:55:00,22.6,21.0,29.96,West,265,0.0,1.0,93,0.00,,,0.00,weatherlink.com 1.10,2013-01-10 01:55:00,
2013-01-09 21:10:00,23.5,22.0,29.96,West,265,0.0,2.0,92,0.00,,,0.00,weatherlink.com 1.10,2013-01-10 02:10:00,
2013-01-09 21:25:00,23.8,22.0,29.96,West,265,0.0,0.0,92,0.00,,,0.00,weatherlink.com 1.10,2013-01-10 02:25:00,
2013-01-09 21:40:00,24.0,22.0,29.96,West,265,0.0,0.0,92,0.00,,,0.00,weatherlink.com 1.10,2013-01-10 02:40:00,
2013-01-09 21:55:00,24.5,23.0,29.96,SE,128,0.0,5.0,92,0.00,,,0.00,weatherlink.com 1.10,2013-01-10 02:55:00,
2013-01-09 22:10:00,25.2,23.0,29.97,SSE,161,0.0,9.0,91,0.00,,,0.00,weatherlink.com 1.10,2013-01-10 03:10:00,
2013-01-09 22:25:00,32.5,28.0,29.97,West,276,9.0,17.0,84,0.00,,,0.00,weatherlink.com 1.10,2013-01-10 03:25:00,
2013-01-09 22:40:00,41.6,30.0,29.97,WSW,256,8.0,19.0,63,0.01,,,0.01,weatherlink.com 1.10,2013-01-10 03:40:00,
2013-01-09 22:55:00,42.0,29.0,29.98,NW,305,8.0,19.0,60,0.01,,,0.01,weatherlink.com 1.10,2013-01-10 03:55:00,
2013-01-09 23:10:00,41.3,29.0,29.97,West,271,2.0,9.0,61,0.01,,,0.01,weatherlink.com 1.10,2013-01-10 04:10:00,
2013-01-09 23:25:00,41.5,28.0,29.98,West,281,7.0,13.0,59,0.01,,,0.01,weatherlink.com 1.10,2013-01-10 04:25:00,
2013-01-09 23:40:00,41.7,28.0,29.97,West,279,8.0,23.0,58,0.00,,,0.01,weatherlink.com 1.10,2013-01-10 04:40:00,
2013-01-09 23:55:00,41.6,28.0,29.96,WNW,292,10.0,14.0,58,0.00,,,0.01,weatherlink.com 1.10,2013-01-10 04:55:00,